Dewpoint
36 28 28 26 23 22 20 21 20 19 18 17 20 22 17 19 18 16 15 17 20 18 18 17 16 16 15 15 15 15 15 17 17 17 17 18 18 19 19 20 21 22 24 32 32 32 30 32 31 29 28 28 26 23 23 25 25 25 26 27 26 26 24 25 25 26 24 24 24 25 25 23 25 25 26 27 25 24 24 28 27 28 27 28 27 28
39 29 27 26 22 20 19 18 19 20 19 18 20 23 19 25 17 16 14 19 18 18 18 17 18 17 16 16 16 17 17 16 17 17 17 17 17 18 18 20 23 22 35 36 33 32 32 31 32 29 28 29 24 22 22 25 24 25 26 26 26 25 24 24 25 26 24 23 22 23 24 24 24 25 25 24 24 25 28 27 27 27 27 28 27 27
29 27 26 25 23 22 20 18 19 19 20 24 23 24 22 19 21 19 19 19 19 20 17 18 17 18 18 18 19 18 18 18 18 18 17 17 17 18 19 19 22 27 35 31 30 33 31 33 31 28 28 27 24 22 22 24 24 25 26 26 25 25 24 24 25 26 23 24 24 24 24 24 24 25 25 25 25 26 26 26 27 26 27 27 27 26
28 29 27 26 24 20 18 20 21 22 25 23 22 21 19 22 23 17 27 21 18 18 23 21 20 20 20 20 20 20 19 19 21 20 21 22 20 19 19 19 24 29 32 29 29 30 30 31 29 27 27 26 25 23 22 24 24 25 27 25 25 24 24 23 25 26 24 24 24 25 24 24 24 24 26 26 26 26 26 26 27 26 26 27 26 26
21 23 27 26 26 22 20 22 23 21 19 25 25 22 20 22 22 22 20 20 20 20 25 21 21 21 22 21 21 21 22 21 21 20 20 22 27 26 29 31 33 29 31 30 29 30 29 29 28 27 26 26 25 24 22 23 24 23 25 25 25 24 23 23 26 25 24 26 25 28 26 28 26 25 24 24 24 25 26 26 25 25 26 26 25 26
24 22 35 25 30 31 31 23 27 28 20 20 29 24 21 20 19 21 24 29 27 26 23 28 18 14 19 22 21 21 22 20 20 20 19 19 20 22 24 27 31 37 32 30 29 29 29 29 28 27 27 26 26 25 24 23 24 23 25 25 25 25 23 23 24 24 24 24 24 25 24 23 23 23 23 22 22 23 24 23 25 25 26 26 25 25
21 30 30 27 29 32 32 27 29 32 22 22 21 28 25 24 27 29 30 28 25 23 25 26 17 14 18 16 19 23 20 20 20 22 21 21 21 22 25 27 29 34 32 31 30 30 28 29 28 27 26 26 26 25 26 24 23 23 24 25 25 24 23 25 24 24 25 24 24 23 22 22 21 21 23 22 23 23 24 24 24 24 25 26 25 25
27 27 29 32 31 30 31 27 29 26 24 19 33 37 31 29 31 33 32 30 26 28 29 26 26 19 18 17 19 17 17 16 17 19 21 21 21 21 18 17 29 34 31 32 30 30 28 29 28 27 27 26 26 26 26 24 23 23 23 24 25 24 24 24 24 23 24 23 24 23 23 23 21 19 20 20 20 23 23 22 23 24 24 24 24 24
26 33 29 30 31 28 27 27 31 31 26 29 32 34 33 32 32 31 29 28 26 23 22 25 27 20 18 17 17 17 15 14 14 13 15 17 18 19 17 15 31 33 32 31 32 30 28 28 28 28 27 27 27 27 26 24 23 23 23 24 24 24 24 24 23 23 24 24 23 23 22 22 21 19 21 20 23 23 23 22 22 22 22 23 24 24
31 35 35 32 30 25 29 30 35 38 27 35 34 34 33 32 30 29 24 24 24 20 19 24 25 18 15 16 18 18 16 15 15 14 13 13 13 17 20 17 26 33 32 33 32 30 29 28 28 28 28 28 27 28 29 25 24 23 23 24 24 24 24 24 23 23 24 24 24 22 21 20 20 21 23 21 21 21 21 21 20 20 21 22 22 22
32 27 35 32 30 31 28 29 35 34 34 36 33 32 30 28 26 24 24 22 21 18 20 23 25 19 15 17 16 19 19 17 15 14 13 13 16 16 21 18 29 32 33 34 33 31 29 28 28 28 28 27 27 28 28 27 24 23 24 23 23 23 24 24 24 23 23 23 22 21 21 19 19 22 22 21 20 21 20 20 21 20 20 20 20 20
28 32 28 32 35 29 32 33 32 33 35 35 27 25 26 26 22 22 21 21 17 15 17 21 24 23 17 17 23 17 18 17 15 13 10 12 13 17 23 23 28 31 33 34 33 32 30 29 28 28 27 27 27 28 27 27 26 24 24 23 23 23 23 23 24 24 24 23 22 21 21 20 21 22 23 20 20 20 19 20 21 20 19 18 19 18
26 27 28 35 36 32 32 29 29 31 31 33 26 23 19 20 20 20 20 16 19 14 18 21 23 22 18 13 17 17 14 15 14 12 12 13 15 17 23 28 32 32 34 34 33 32 31 29 28 27 26 26 26 27 26 27 26 25 24 23 23 22 22 23 24 24 23 23 21 21 21 22 22 22 22 20 21 20 20 19 19 19 17 17 17 16
27 31 30 33 31 32 31 22 26 22 24 28 23 23 22 17 16 13 17 20 19 21 21 20 26 17 16 18 19 14 11 13 14 14 16 16 16 18 25 30 33 34 34 34 33 33 31 30 29 27 26 26 26 26 26 27 27 26 25 23 22 22 23 23 24 24 23 22 21 21 22 22 22 21 21 21 20 20 20 20 18 17 16 15 14 15
22 19 27 30 25 33 29 23 23 23 24 23 26 23 22 21 12 10 15 12 14 17 16 21 20 23 14 16 21 19 15 11 13 13 17 21 20 19 28 34 33 33 33 35 33 33 32 31 29 28 27 26 26 26 26 27 27 26 25 24 23 22 23 23 24 24 23 23 22 21 22 22 22 22 22 22 22 21 20 20 18 17 16 15 15 15
22 19 30 31 33 31 28 29 29 32 26 26 27 26 21 22 18 15 16 16 14 18 17 17 16 15 11 17 21 21 19 17 14 13 16 19 21 33 35 34 34 33 33 35 34 33 32 31 30 29 28 27 27 26 26 27 27 27 26 24 23 23 22 22 24 24 23 23 22 21 21 21 22 24 23 24 24 21 19 18 17 16 15 15 15 15
22 16 34 33 34 29 27 35 29 31 20 25 24 23 23 29 23 21 22 23 18 16 16 18 17 18 16 14 15 16 16 15 15 12 14 17 19 29 31 33 34 34 33 34 34 34 33 32 31 30 29 28 27 27 27 27 27 26 26 25 24 23 23 22 23 23 23 23 22 21 21 21 22 23 22 21 20 20 18 16 15 15 14 14 13 16
20 17 33 30 27 30 29 31 32 33 32 24 21 24 31 31 28 22 18 18 18 16 15 17 16 13 14 13 17 15 14 12 13 12 11 15 17 24 29 29 32 33 34 34 34 34 34 33 31 31 30 29 28 27 26 26 26 27 26 25 24 23 23 22 22 23 23 22 22 21 21 21 21 22 21 20 18 18 17 16 15 15 15 13 15 16
27 17 24 32 31 30 30 29 28 32 31 26 25 30 22 20 17 21 18 14 13 12 13 13 12 14 13 11 11 12 14 12 10 12 12 14 17 21 25 28 30 32 34 33 34 34 34 33 32 31 31 29 28 27 27 27 27 27 26 26 24 24 23 22 23 22 23 22 23 23 21 20 21 21 20 19 18 16 15 15 14 13 13 14 15 16
27 21 23 29 31 29 29 27 23 24 29 31 28 25 28 19 20 21 21 18 15 12 10 13 14 11 15 11 11 13 13 13 9 11 12 14 17 19 22 26 28 33 33 33 33 33 34 33 32 31 31 30 29 28 28 27 27 26 26 26 25 24 23 22 22 22 22 22 23 23 22 21 21 20 19 17 16 15 14 14 13 13 12 13 15 14
24 22 18 25 27 29 20 24 22 23 23 23 23 21 22 20 22 20 20 19 16 13 12 10 10 12 18 9 9 14 13 12 12 15 20 19 18 19 21 25 28 31 33 33 32 32 32 32 32 31 31 31 29 29 28 27 26 26 27 26 25 24 23 22 22 22 23 23 22 22 21 20 20 18 17 16 15 14 13 13 13 12 12 14 13 14
26 23 20 20 19 21 20 27 25 25 24 22 23 21 21 21 18 16 16 19 19 16 13 11 11 15 16 12 15 16 14 15 18 17 19 20 18 19 23 24 27 30 32 33 32 32 32 31 31 31 31 30 29 28 28 28 27 26 26 26 26 24 23 21 22 23 23 23 22 22 21 20 19 17 16 14 13 12 12 12 12 13 13 12 13 13
25 23 22 21 20 21 24 26 29 27 29 28 22 21 23 20 19 18 14 16 17 18 20 19 15 14 17 15 15 17 17 16 20 20 20 22 21 21 24 25 27 28 30 33 33 33 32 32 31 31 30 29 29 28 27 27 27 26 25 26 25 24 23 22 22 23 23 22 22 21 20 19 17 16 14 12 11 10 10 11 11 13 11 11 12 13
31 26 22 21 23 25 25 28 29 28 28 26 26 27 23 20 20 18 19 17 17 19 18 17 16 16 18 20 14 12 17 19 21 21 23 25 25 25 25 26 27 28 29 31 32 33 33 32 32 30 29 29 28 27 26 27 26 26 26 25 25 24 23 22 23 23 23 22 21 20 18 17 15 14 12 11 9 8 9 9 10 12 10 10 10 9
23 25 20 20 21 20 21 21 21 25 25 22 21 25 28 26 25 24 24 22 18 19 17 14 11 14 18 21 20 17 17 15 15 17 19 19 21 24 23 24 26 27 28 29 30 31 32 32 30 29 28 28 27 27 26 26 26 26 26 25 25 24 23 23 23 23 22 21 20 18 17 15 13 11 10 9 7 7 8 8 9 10 8 7 6 7
28 26 23 19 18 17 17 17 18 20 21 21 23 24 26 27 25 23 21 21 18 18 17 16 14 13 13 16 19 17 17 16 15 16 16 19 20 22 25 26 26 28 28 28 29 29 29 30 30 29 27 27 26 25 25 24 25 25 25 25 25 24 23 23 23 22 21 20 19 17 15 13 11 9 8 6 5 6 7 7 7 7 6 5 4 4
26 28 27 24 21 21 23 24 26 27 24 20 23 23 23 25 26 26 24 21 19 20 19 19 19 17 16 15 15 14 14 14 14 14 14 18 21 23 23 25 25 26 27 26 27 27 28 28 27 26 26 26 25 24 24 23 23 24 24 24 24 24 23 23 22 21 19 18 17 15 13 11 9 7 5 4 3 5 5 4 4 5 4 5 3 3
30 28 30 29 28 29 31 30 30 30 26 26 26 26 26 26 26 26 24 21 23 22 19 21 21 22 20 18 17 17 17 17 17 16 16 17 20 23 24 24 29 25 26 27 27 27 27 28 27 25 23 23 24 23 21 21 21 22 22 22 23 22 22 23 20 19 18 16 15 13 11 9 6 4 3 1 1 2 3 2 2 3 4 5 2 1
31 28 30 31 30 31 32 31 30 28 28 27 27 28 27 28 28 27 26 26 25 23 20 22 22 22 20 19 19 19 19 18 18 18 18 18 18 19 21 25 26 27 28 28 28 28 27 27 28 26 24 21 20 21 20 18 18 20 21 21 21 21 21 20 19 17 16 14 13 11 9 5 2 1 1 1 0 1 2 2 2 3 3 3 2 1
32 30 31 32 31 31 32 31 30 29 28 28 28 29 29 28 28 27 26 27 26 25 24 23 22 21 20 20 20 20 20 20 19 19 19 19 18 18 17 18 18 26 27 28 28 28 28 28 27 27 25 23 20 19 18 17 16 18 19 19 20 20 19 18 17 15 13 12 11 8 4 1 1 0 1 1 2 2 2 3 4 4 4 4 2 1
33 29 33 32 30 30 31 31 31 31 29 28 29 29 29 28 27 27 26 26 26 25 24 24 23 22 22 21 21 21 20 20 20 19 18 18 18 18 18 18 18 20 23 25 25 26 26 26 27 26 26 25 23 19 18 17 16 17 18 18 19 18 17 16 15 14 12 10 8 5 1 -0 -0 0 2 3 3 8 7 6 6 6 5 5 5 3
33 30 33 31 29 27 30 30 31 31 31 30 29 28 28 27 26 26 26 25 25 25 24 24 24 23 22 23 23 22 21 21 20 20 19 20 19 19 19 19 20 21 21 22 22 24 25 26 26 26 25 25 25 22 19 18 17 17 17 17 17 16 14 14 14 12 10 8 5 2 1 1 3 4 6 7 10 10 10 9 8 8 8 7 7 6
31 30 29 30 27 26 29 30 30 30 29 27 28 29 29 28 28 27 27 27 26 26 24 23 23 23 23 24 23 22 22 21 21 20 20 20 20 20 20 20 21 22 22 23 25 25 25 25 25 26 27 26 25 24 21 18 16 16 17 17 16 13 11 13 12 10 8 5 4 2 2 4 6 9 10 10 10 11 10 10 11 9 10 9 8 8
32 31 30 31 27 26 29 29 30 27 20 21 29 32 30 28 28 27 27 27 27 26 24 24 23 24 23 23 22 22 22 21 21 22 22 21 20 21 21 21 22 22 23 25 26 27 27 27 27 27 26 27 26 25 22 18 17 16 17 16 13 11 10 11 10 9 9 7 6 4 5 7 10 10 10 10 10 9 9 9 11 9 9 9 8 8
31 31 30 31 29 26 29 29 26 19 20 28 34 33 31 29 28 28 28 27 26 26 26 25 24 24 23 23 23 23 23 23 23 22 22 23 23 22 22 22 23 24 25 26 26 26 26 27 27 27 27 26 25 24 20 17 17 16 16 14 12 11 11 11 10 10 9 8 6 7 9 9 10 11 10 10 9 9 8 8 9 9 9 9 8 8
32 31 30 30 30 29 28 26 19 18 29 32 31 29 31 29 29 28 28 28 27 26 26 25 24 24 24 23 23 23 23 23 23 23 24 23 24 23 23 24 24 25 25 26 26 26 26 26 27 27 27 27 24 21 18 17 16 15 16 13 13 11 12 13 12 10 8 9 8 9 8 10 11 10 10 10 8 8 9 8 9 9 9 8 8 9
33 32 31 28 30 25 24 24 23 26 26 29 30 29 28 26 26 26 24 24 26 26 26 25 25 24 25 24 24 23 23 23 23 23 24 24 26 26 26 25 25 26 26 27 27 27 27 28 28 27 27 23 20 18 17 16 17 16 14 14 12 14 14 13 13 10 10 10 8 9 9 10 10 9 8 8 8 9 9 8 9 8 9 9 9 8
33 32 31 29 27 29 26 25 24 24 22 24 27 29 29 28 26 27 25 25 27 25 26 25 25 24 25 25 25 25 27 24 24 23 24 25 25 28 28 31 31 29 28 28 28 28 28 28 28 28 25 20 19 18 17 17 18 17 16 15 13 15 13 13 12 11 12 9 10 9 9 10 10 9 8 8 8 9 9 9 9 9 9 9 8 8
34 33 32 31 28 29 27 24 23 22 23 28 27 27 28 27 29 29 27 24 25 26 26 25 24 25 25 26 26 26 27 26 26 25 26 26 26 26 26 28 31 30 29 28 27 26 27 27 28 25 23 19 20 18 17 19 19 17 17 15 13 14 14 13 12 11 11 9 8 8 10 10 10 9 8 7 9 10 9 9 8 8 8 8 8 8
32 32 31 29 27 29 28 24 22 25 25 28 29 28 26 27 29 28 23 23 28 27 27 26 25 26 26 26 26 26 26 25 26 25 26 27 27 27 27 27 27 27 27 27 27 27 27 27 23 21 22 21 20 19 18 19 19 18 16 14 12 14 14 14 13 11 9 8 8 11 11 10 9 8 8 8 9 9 9 9 8 7 6 6 6 5
30 30 31 26 28 28 29 26 27 27 31 32 30 29 29 29 27 24 21 25 27 28 28 27 27 28 28 27 26 27 27 26 26 27 27 27 26 26 26 27 27 26 26 25 25 29 27 24 25 25 24 23 20 19 19 19 19 18 17 14 13 14 14 14 12 11 10 8 9 10 10 10 9 8 8 8 9 9 8 7 7 6 5 5 4 4
28 29 29 30 27 26 27 26 25 27 30 32 31 30 30 27 23 22 25 28 30 33 32 35 35 31 31 31 30 29 30 29 29 28 28 28 27 27 26 25 25 26 28 28 27 27 25 23 25 25 22 22 20 20 19 20 19 19 17 15 14 15 16 13 11 10 11 10 9 9 9 9 9 8 8 8 8 7 6 6 6 5 4 4 4 4
26 27 24 26 28 29 27 24 23 20 31 33 32 29 30 28 27 32 33 33 34 35 35 34 34 34 34 33 33 32 32 30 30 30 30 28 26 25 25 25 25 25 24 26 24 24 26 24 24 25 24 22 22 21 21 21 20 19 18 16 16 17 14 12 11 10 10 9 8 7 7 7 7 7 6 6 6 6 5 5 4 4 3 3 3 3
27 26 26 27 28 24 24 23 22 30 31 32 26 26 28 28 31 35 34 33 35 35 35 34 34 33 34 34 33 33 33 33 33 33 32 32 31 30 29 28 28 30 30 29 26 26 28 27 26 26 23 21 22 22 22 22 22 21 18 17 17 17 13 13 11 10 9 8 7 6 6 5 5 5 5 5 5 5 4 3 2 2 2 3 2 1
34 24 25 22 24 23 23 26 28 33 33 30 26 24 26 30 36 35 35 35 34 34 34 32 32 32 33 33 31 31 31 32 31 32 32 31 31 31 31 30 29 28 27 26 26 25 26 26 27 25 20 20 20 21 22 23 24 22 20 19 16 15 12 11 10 8 6 5 4 3 3 4 4 4 4 4 5 3 2 1 1 0 1 2 2 2
21 27 29 25 23 25 23 24 31 28 23 22 21 25 31 34 34 35 34 34 33 33 33 31 31 31 31 30 29 28 28 27 27 27 26 26 27 28 30 31 31 31 30 27 24 25 26 26 25 24 24 20 19 19 21 22 24 22 23 17 14 13 11 9 8 6 4 3 2 2 2 2 2 2 3 3 4 3 2 0 0 1 1 1 2 3
22 25 21 17 18 16 14 19 18 20 19 17 16 24 33 34 34 33 32 31 29 27 24 28 27 26 25 27 26 25 25 25 23 23 23 23 23 24 26 28 29 30 31 30 28 25 23 24 26 26 25 23 19 19 20 20 23 23 17 14 13 11 9 8 6 5 3 2 1 1 1 1 0 1 1 2 2 2 1 1 2 2 1 1 2 2
14 20 15 14 13 12 12 13 15 15 15 16 21 28 32 30 29 28 25 21 17 15 17 17 20 22 23 22 22 22 21 21 21 20 21 21 22 24 26 27 29 29 30 31 30 26 23 23 24 25 24 25 23 18 18 19 21 20 16 13 11 9 7 6 5 3 2 1 0 0 1 1 1 0 -0 1 2 1 0 1 3 1 0 1 2 2
14 13 10 14 12 13 11 10 10 13 19 19 21 29 18 15 17 12 10 12 14 17 18 17 18 18 19 19 19 20 21 21 21 21 22 22 23 27 28 28 30 31 31 32 29 25 26 24 24 24 24 25 23 18 16 17 18 15 12 11 9 8 6 5 4 2 1 -0 -1 -0 1 0 0 -0 -0 0 1 2 2 2 2 1 2 4 4 4
15 14 14 13 12 11 10 13 13 7 6 2 1 3 7 10 9 10 12 15 19 20 21 20 20 21 22 22 23 23 24 24 24 25 26 26 27 28 30 31 31 32 32 32 31 27 25 24 24 24 24 24 22 17 16 16 16 13 12 9 8 7 6 4 2 1 -0 -1 -1 0 0 -1 -1 -0 0 0 -0 -0 0 3 6 4 3 4 8 11
13 13 15 14 14 13 11 5 4 3 1 2 3 6 7 9 12 15 18 19 20 22 22 22 20 19 21 24 25 26 26 24 24 25 25 26 26 26 27 28 28 30 30 31 31 30 27 26 24 24 24 24 20 17 16 15 15 11 10 9 8 7 7 4 1 -0 -1 -1 -1 -0 -0 -1 -1 -0 -0 0 1 1 1 3 6 10 10 10 12 13